Weather in Lukino

Russia / Nizhny Novgorod Oblast'     56°26′28″N   43°37′42″E
temp.,
°C
wind,
m/s
gust,
m/s
humid.,
%
clouds,
%
prec.,
mm/h
press.,
hPa
HPBL,
m
21 january, thu
thu2100:00−11w489598 0.3 1016252
03:00−12w499692 0.5 1017231
06:00−10w5109498 0.2 1017352
09:00−11wsw499399 0.3 1017296
12:00−11wsw5989100 0.0 1017378
15:00−11sw4890100 0.0 1016404
18:00−11sw3795100 0.4 1015348
21:00−12sw2396100 0.9 101476
22 january, fri
fri2200:00−14wsw2396100 0.1 101422
03:00−15w1297100 0.1 101520
06:00−16sw0196100 0.0 101620
09:00−17se1196100 0.0 101720
12:00−12se239394 0.0 1017217
15:00−11ese469497 0.0 1017277
18:00−11ese5994100 0.6 1017314
21:00−12se61094100 1.0 1017337
23 january, sat
sat2300:00−11se61095100 0.9 1016346
03:00−9se5995100 1.5 1015282
06:00−7ese5895100 0.3 1014191
09:00−4ese4698100 1.0 1013122
12:00+1ssw36100100 1.4 1012163
15:00+1ssw49100100 2.3 1012224
18:00+1sw41099100 0.3 1012297
21:00+1sw41097100 0.3 1013392
24 january, sun
sun2400:00+1sw41099100 0.3 1014312
03:00+1ssw51198100 0.7 1015353
06:00+1ssw4996100 0.0 1015314
09:00+1ssw4897100 0.0 1016266
12:00+1s37100100 0.0 1017208
15:00+1s2699100 0.0 1017167
18:00+1s3799100 0.0 1018219
21:00+1s3799100 0.1 1018242
25 january, mon
mon2500:00+1s3798100 0.1 1018266
03:00+1s39100100 0.4 1019333
06:00+1s4999100 0.8 1019292
09:00+1sse41197100 1.4 1019422
12:00+1sse51093100 0.0 1019389
15:000sse51090100 0.0 1019467
18:00−2sse4894100 0.0 1020272
21:00−1sse4994100 0.0 1019439